カタログに戻る

HULIANWANG DIGUI-73

運用中通信LEO
NORAD 65305·PAYLOAD·🇨🇳 China

打ち上げ Aug 25, 2025 から Wenchang Space Launch Site

Loading…

次のパス (今後24時間)

TLE

最新Source: Space-Track

元期: Sep 14, 2026, 12:37 UTC

1 65305U 25187A   26257.52580325 -.00000093  00000-0  67916-4 0  9990
2 65305  50.0037 245.4739 0000660 335.8423  24.2418 13.29326314 51584

AllMySatでHULIANWANG DIGUI-73をリアルタイム追跡

Download on the App Store